Regional Weather Roundup
Issued by NWS Newport/Morehead, NC

Current Version | Previous Version | Graphics & Text | Print | Product List | Glossary On
Versions: 1 2 3 4 5 6 7 8 9 10 11 12 13 14 15 16 17 18 19 20 21 22 23 24 25 26 27 28 29 30 31 32 33 34 35 36 37 38 39 40 41 42 43 44 45 46 47 48 49 50
221 ASUS42 KMHX 221425 RWRMHX WEATHER ROUNDUP FOR EASTERN NORTH CAROLINA NATIONAL WEATHER SERVICE NEWPORT/MOREHEAD CITY NC 1000 AM EDT WED MAR 22 2017 NOTE: "FAIR" INDICATES FEW OR NO CLOUDS BELOW 12,000 FEET WITH NO SIGNIFICANT WEATHER AND/OR OBSTRUCTIONS TO VISIBILITY NCZ015>017-031-032-045>047-102-103-221500- NORTH COAST CITY SKY/WX TMP DP RH WIND PRES REMARKS EDENTON CLOUDY 56 50 81 N6 30.06 ELIZABETH CITY CLOUDY 53 47 79 N12 30.05 KITTY HAWK NOT AVBL MANTEO CLOUDY 51 48 89 N6 30.04R $$ NCZ045>047-081-094-103-104-221500- CENTRAL COAST CITY SKY/WX TMP DP RH WIND PRES REMARKS FRISCO CLOUDY 52 47 83 NE9 29.99R HAZE $$ NCZ095-097-098-100-101-221500- SOUTHERN COAST CITY SKY/WX TMP DP RH WIND PRES REMARKS BEAUFORT CLOUDY 53 49 86 N9 30.02R CEDAR ISLAND NOT AVBL JACKSONVILLE CLOUDY 55 53 93 N8 30.04R PINEY ISLAND NOT AVBL WILMINGTON CLOUDY 59 55 87 N16G22 30.03R $$ NCZ011>013-027>030-043-044-078>080-089-090>093-098-221500- COASTAL PLAIN CITY SKY/WX TMP DP RH WIND PRES REMARKS AHOSKIE NOT AVBL CLINTON PTSUNNY 59 53 79 N10 30.08R ELIZABETHTOWN MOSUNNY 59 48 67 N7 30.06R GOLDSBORO CLOUDY 56 55 99 N6 30.06R GREENVILLE CLOUDY 54 50 87 CALM 30.08R HAVELOCK NOT AVBL KENANSVILLE CLOUDY 55 50 82 N8 30.08R KINSTON CLOUDY 54 50 87 N3 30.07 NEW BERN CLOUDY 54 50 86 N6 30.05 RICHLANDS CLOUDY 55 51 86 N7 30.05 ROCKY MOUNT MOSUNNY 59 47 64 N14G21 30.07 WASHINGTON CLOUDY 52 49 90 CALM 30.07R WHITEVILLE CLOUDY 59 46 63 N6G17 30.05R $$ AMZ130-135-150-152-154-156-158-170-250-252-270-ANZ085-086-088-633-658-670-221500- MARINE OBSERVATIONS STATION/POSITION TIME TEMP WIND PRES WAVE SWELL AIR SEA DIR/SP/G HT/PER HT/PER (UTC) (F) (DEG/KT/KT) (MB) (FT/S) (FT/S) CHESAPEAKE LIGHT NOT AVBL 64 E VA BEACH 1350 50 48 350/ 14/ 17 1016.0 3/10 3/10 DUCK 1400 50 48 350/ 11/ 12 1016.5 2 E DUCK 1400 48 N/A 2/11 2/11 OREGON INLET 1400 50 51 360/ 5/ 6 1016.4 13E OREGON INLT NOT AVBL HATTERAS CG 1400 52 55 30/ 10/ 14 1015.4 DIAMOND BUOY 1350 56 72 40/ 25/ 31 1013.7 8/11 3/11 CAPE LOOKOUT 1400 52 360/ 12/ 14 1015.9 BEAUFORT LAB 1400 53 53 360/ 8/ 12 1015.8 30 SE NEW RVR IN 1408 55 10/ 17/ 25 1016.0 30 SE NEW RVR IN 1413 64 N/A 5/ 7 2/11 27 SE WRIGHTSVLE 1408 57 64 40/ 19/ 29 1015.2 5 SE WRIGHTSVLE 1408 57 56 40/ 12/ 19 1016.4 225 S CAPE HAT 1350 73 75 220/ 25/ 31 1013.0 9/ 7 41 SE CHARLESTON 1350 65 66 290/ 14/ 17 1015.5 4/ 6 2/11 $$

USA.gov is the U.S. government's official web portal to all federal, state and local government web resources and services.